Location: Lugrin
(46.4033°N, 6.6674°E)
Time: 17:30:54
(UTC+00:00)

Cosmos 1844 - Pass Details

Date: 18 September 2020
Orbit: 824 x 866 km, 70.9° (Epoch: 30 October)

Event Time Altitude Azimuth Distance (km) Brightness Sun altitude
Rises 19:25:34 0° 187° (S) 3,413 6.7 -18.8°
Reaches altitude 10° 19:28:05 10° 182° (S) 2,475 5.9 -19.2°
Maximum altitude 19:33:31 48° 109° (ESE) 1,093 3.8 -20.0°
Drops below altitude 10° 19:38:55 10° 37° (NE) 2,464 6.0 -20.9°
Sets 19:41:26 0° 32° (NNE) 3,396 6.8 -21.3°
